Home   Weather   Wolfsburg   Past weeks

Flag for Germany Past Weather in Wolfsburg, Lower Saxony, Germany — Yesterday and Last 2 Weeks

Now
43 °F

Mostly cloudy.


Feels Like: 36 °F
Forecast: 33 / 51 °F
Wind: 14 mph from West

Location: Braunschweig Wolfsburg

Current Time: Apr 25, 2017 at 11:10:56 am

Latest Report: Apr 25, 2017 at 10:20 am


Visibility: N/A

Pressure: 29.65 "Hg

Humidity: 100%

Dew Point: 43 °F

Location of WolfsburgLocation

Past Weather in Wolfsburg — Graph

°F

Wolfsburg Temperature Yesterday

Maximum temperature yesterday: 57 °F (at 2:50 pm)
Minimum temperature yesterday: 36 °F (at 6:50 am)
Average temperature yesterday: 50 °F

High & Low Weather Summary for the Past Weeks

 TemperatureHumidityPressure
High59 °F (Apr 10, 9:20 am)100% (Apr 11, 7:20 am)30.60 "Hg (Apr 11, 7:20 am)
Low25 °F (Apr 20, 6:50 am)34% (Apr 20, 3:20 pm)29.62 "Hg (Apr 25, 6:20 am)
Average47 °F70%30.14 "Hg
* Reported Apr 10 9:20 am — Apr 25 9:20 am, Wolfsburg, Weather by CustomWeather, © 2017

Note: Actual official high and low records may vary slightly from our data, if they occured in-between our weather recording intervals... More about our weather records

Advertising

Wolfsburg Weather History for the Previous 24 Hours

Scroll right to see more
 ConditionsComfort  
Time TempWeatherWind HumidityBarometerVisibility
9:20 am
Tue, Apr 25
43 °FMostly cloudy.10 mph100%29.62 "HgN/A
8:50 am43 °FMore clouds than sun.8 mph100%29.62 "HgN/A
8:20 am41 °FMore clouds than sun.9 mph100%29.62 "HgN/A
7:50 am41 °FLight rain. Low clouds.7 mph100%29.62 "HgN/A
7:20 am39 °FLight rain. Low clouds.6 mph100%29.62 "HgN/A
6:50 am39 °FMore clouds than sun.6 mph100%29.62 "HgN/A
6:20 am41 °FLight rain. Cloudy.6 mph100%29.62 "Hg5 mi
9:50 pm
Mon, Apr 24
48 °FLight rain. Overcast.7 mph87%29.77 "HgN/A
9:20 pm50 °FOvercast.9 mph71%29.77 "HgN/A
8:20 pm50 °FSunny.7 mph71%29.77 "Hg10 mi
7:50 pm50 °FSunny.9 mph71%29.80 "Hg10 mi
7:20 pm52 °FSunny.9 mph62%29.80 "Hg10 mi
6:50 pm54 °FPassing clouds.9 mph54%29.80 "HgN/A
6:20 pm54 °FSunny.9 mph54%29.80 "Hg10 mi
5:50 pm55 °FSunny.12 mph51%29.80 "Hg10 mi
5:20 pm55 °FSunny.12 mph51%29.80 "Hg10 mi
4:20 pm55 °FSunny.16 mph47%29.83 "Hg10 mi
3:50 pm57 °FSunny.20 mph44%29.86 "Hg10 mi
3:20 pm57 °FPassing clouds.18 mph44%29.86 "HgN/A
2:50 pm57 °FSunny.17 mph44%29.86 "Hg10 mi
2:20 pm55 °FSunny.17 mph44%29.89 "Hg10 mi
1:50 pm55 °FPartly sunny.17 mph44%29.89 "HgN/A
1:20 pm55 °FPartly sunny.16 mph44%29.92 "HgN/A
12:50 pm55 °FBroken clouds.21 mph44%29.92 "HgN/A
12:20 pm54 °FPassing clouds.20 mph44%29.95 "HgN/A
11:50 am54 °FSunny.20 mph44%29.95 "Hg10 mi
11:20 am52 °FPassing clouds.15 mph54%29.98 "HgN/A
Weather by CustomWeather, © 2017

See weather overviewHow to use our weather pages